Flag for Brazil Weather past 2 weeks in Pirassununga, São Paulo, Brazil

Now
72 °F

Broken clouds.


Feels Like: 71 °F
Forecast: 64 / 79 °F
Wind: 2 mph from North

Location: Pirassununga Airport


UV Index: 0 (Low)

Visibility: 4 mi


Pressure: 30.09 "Hg

Humidity: 83%

Dew point: 66 °F

Location of PirassunungaLocation

Historic Weather in Pirassununga

°F

Pirassununga temperature yesterday

Maximum temperature yesterday: 72 °F (at 4:00 PM)
Minimum temperature yesterday: 63 °F (at 6:00 AM)
Average temperature yesterday: 67 °F

Past Weeks' High & Low Weather Summary

 TemperatureHumidityPressure
High91 °F (Apr 9, 1:00 PM)100% (Apr 12, 9:00 PM)30.12 "Hg (Apr 12, 9:00 PM)
Low59 °F (Apr 18, 6:00 AM)31% (Apr 8, 1:00 PM)29.86 "Hg (Apr 9, 3:00 PM)
Average74 °F75%30.02 "Hg
* Reported Apr 8 11:00 AM — Apr 23 11:00 AM, Pirassununga, Weather by CustomWeather, © 2014

Note: Actual official high and low records may vary slightly from our data, if they occured in-between our weather recording intervals... More about our weather records

Advertising

Historic Weather Conditions — Data for Previous 24 hours

 ConditionsComfort  
Time TempWeatherWind HumidityBarometerVisibility
11:00 AM
Apr 23
72 °FBroken clouds.2 mph83%30.09 "Hg4 mi
10:00 AM68 °FFog.2 mph88%30.09 "Hg3 mi
9:00 AM66 °FFog.6 mph94%30.09 "Hg2 mi
8:00 AM63 °FFog.2 mph100%30.09 "Hg1 mi
7:00 AM61 °FFog.3 mph100%30.07 "Hg1 mi
6:00 AM61 °FFog.2 mph100%30.04 "Hg1 mi
11:00 PM
Apr 22
63 °FClear.3 mph100%30.04 "Hg10 mi
10:00 PM64 °FClear.2 mph94%30.04 "Hg10 mi
9:00 PM64 °FClear.3 mph94%30.04 "Hg10 mi
8:00 PM66 °FClear.6 mph94%30.01 "Hg10 mi
7:00 PM66 °FClear.8 mph94%29.98 "Hg10 mi
6:00 PM70 °FPassing clouds.2 mph83%29.95 "HgN/A
5:00 PM72 °FPassing clouds.5 mph78%29.95 "HgN/A
4:00 PM72 °FPassing clouds.3 mph78%29.98 "HgN/A
3:00 PM70 °FScattered clouds.12 mph83%29.98 "HgN/A
2:00 PM70 °FBroken clouds.8 mph83%30.01 "HgN/A
1:00 PM64 °FBroken clouds.10 mph94%30.04 "Hg5 mi
12:00 PM64 °FThunderstorms. Fog.15 mph94%30.09 "Hg2 mi
Weather by CustomWeather, © 2014

See weather overview